Time,TemperatureF,DewpointF,PressureIn,WindDirection,WindDirectionDegrees,WindSpeedMPH,WindSpeedGustMPH,Humidity,HourlyPrecipIn,Conditions,Clouds,dailyrainin,SoftwareType,DateUTC
2013-03-13 00:03:00,34.0,32.0,-100.00,SW,225,6.0,7.0,94,0.00,,,-99.99,,2013-03-13 04:03:00,
2013-03-13 00:13:00,34.0,32.0,-100.00,SW,225,4.0,9.0,94,0.00,,,-99.99,,2013-03-13 04:13:00,
2013-03-13 00:22:00,34.0,32.0,-100.00,SW,225,4.0,9.0,93,0.00,,,-99.99,,2013-03-13 04:22:00,
2013-03-13 00:32:00,34.0,32.0,-100.00,SSW,205,6.0,8.0,93,0.00,,,-99.99,,2013-03-13 04:32:00,
2013-03-13 00:43:00,33.0,32.0,-100.00,WSW,250,2.0,6.0,93,0.00,,,-99.99,,2013-03-13 04:43:00,
2013-03-13 00:52:00,33.0,31.0,-100.00,West,275,1.0,4.0,93,0.00,,,-99.99,,2013-03-13 04:52:00,
2013-03-13 01:02:00,33.0,31.0,-100.00,WSW,255,1.0,3.0,93,0.00,,,-99.99,,2013-03-13 05:02:00,
2013-03-13 01:12:00,33.0,31.0,-100.00,SW,225,2.0,4.0,94,0.00,,,-99.99,,2013-03-13 05:12:00,
2013-03-13 01:22:00,33.0,31.0,-100.00,SSW,210,1.0,3.0,94,0.00,,,-99.99,,2013-03-13 05:22:00,
2013-03-13 01:32:00,32.0,31.0,-100.00,SW,215,3.0,6.0,94,0.00,,,-99.99,,2013-03-13 05:32:00,
2013-03-13 01:42:00,33.0,31.0,-100.00,SW,215,6.0,9.0,93,0.00,,,-99.99,,2013-03-13 05:42:00,
2013-03-13 01:52:00,33.0,31.0,-100.00,SW,215,6.0,9.0,92,0.00,,,-99.99,,2013-03-13 05:52:00,
2013-03-13 02:02:00,33.0,31.0,-100.00,SW,235,6.0,10.0,91,0.00,,,-99.99,,2013-03-13 06:02:00,
2013-03-13 02:12:00,33.0,31.0,-100.00,SW,215,7.0,12.0,90,0.00,,,-99.99,,2013-03-13 06:12:00,
2013-03-13 02:23:00,33.0,31.0,-100.00,WSW,240,7.0,12.0,91,0.55,,,-99.99,,2013-03-13 06:23:00,
2013-03-13 02:32:00,33.0,31.0,-100.00,SSW,205,6.0,10.0,94,0.55,,,-99.99,,2013-03-13 06:32:00,
2013-03-13 02:42:00,32.0,31.0,-100.00,SW,225,5.0,8.0,95,0.00,,,-99.99,,2013-03-13 06:42:00,
2013-03-13 02:52:00,33.0,31.0,-100.00,SW,235,8.0,12.0,95,0.00,,,-99.99,,2013-03-13 06:52:00,
2013-03-13 03:03:00,33.0,31.0,-100.00,SW,235,9.0,14.0,95,0.00,,,-99.99,,2013-03-13 07:03:00,
2013-03-13 03:12:00,33.0,31.0,-100.00,WSW,240,10.0,14.0,95,0.00,,,-99.99,,2013-03-13 07:12:00,
2013-03-13 03:22:00,33.0,31.0,-100.00,WSW,250,9.0,13.0,94,0.00,,,-99.99,,2013-03-13 07:22:00,
2013-03-13 03:33:00,33.0,30.0,-100.00,WSW,250,9.0,15.0,92,0.00,,,-99.99,,2013-03-13 07:33:00,
2013-03-13 03:42:00,33.0,30.0,-100.00,SW,235,9.0,14.0,89,0.00,,,-99.99,,2013-03-13 07:42:00,
2013-03-13 03:52:00,33.0,30.0,-100.00,WSW,245,8.0,12.0,90,0.00,,,-99.99,,2013-03-13 07:52:00,
2013-03-13 04:03:00,33.0,30.0,-100.00,WSW,240,10.0,13.0,90,0.00,,,-99.99,,2013-03-13 08:03:00,
2013-03-13 04:12:00,32.0,30.0,-100.00,WSW,240,10.0,12.0,90,0.00,,,-99.99,,2013-03-13 08:12:00,
2013-03-13 04:22:00,32.0,30.0,-100.00,WSW,240,11.0,14.0,90,0.00,,,-99.99,,2013-03-13 08:22:00,
2013-03-13 04:32:00,32.0,30.0,-100.00,WSW,240,9.0,12.0,89,0.00,,,-99.99,,2013-03-13 08:32:00,
2013-03-13 04:43:00,32.0,29.0,-100.00,WSW,255,8.0,12.0,87,0.00,,,-99.99,,2013-03-13 08:43:00,
2013-03-13 04:53:00,32.0,29.0,-100.00,WSW,250,7.0,14.0,86,0.00,,,-99.99,,2013-03-13 08:53:00,
2013-03-13 05:02:00,32.0,29.0,-100.00,WSW,240,9.0,12.0,87,0.00,,,-99.99,,2013-03-13 09:02:00,
2013-03-13 05:12:00,32.0,28.0,-100.00,West,260,8.0,12.0,87,0.00,,,-99.99,,2013-03-13 09:12:00,
2013-03-13 05:22:00,32.0,28.0,-100.00,WSW,250,9.0,12.0,87,0.00,,,-99.99,,2013-03-13 09:22:00,
2013-03-13 05:32:00,32.0,28.0,-100.00,SW,235,9.0,12.0,86,0.00,,,-99.99,,2013-03-13 09:32:00,
2013-03-13 05:42:00,32.0,28.0,-100.00,WSW,250,7.0,12.0,87,0.00,,,-99.99,,2013-03-13 09:42:00,
2013-03-13 05:52:00,31.0,28.0,-100.00,WSW,240,6.0,9.0,88,0.00,,,-99.99,,2013-03-13 09:52:00,
2013-03-13 06:02:00,31.0,28.0,-100.00,SW,225,9.0,12.0,88,0.00,,,-99.99,,2013-03-13 10:02:00,
2013-03-13 06:12:00,32.0,29.0,-100.00,SW,225,9.0,14.0,88,0.00,,,-99.99,,2013-03-13 10:12:00,
2013-03-13 06:22:00,31.0,28.0,-100.00,WSW,240,8.0,11.0,88,0.00,,,-99.99,,2013-03-13 10:22:00,
2013-03-13 06:32:00,31.0,28.0,-100.00,WSW,240,9.0,12.0,87,0.00,,,-99.99,,2013-03-13 10:32:00,
2013-03-13 06:42:00,31.0,28.0,-100.00,WSW,245,10.0,16.0,87,0.00,,,-99.99,,2013-03-13 10:42:00,
2013-03-13 06:52:00,31.0,28.0,-100.00,WSW,240,7.0,14.0,87,0.00,,,-99.99,,2013-03-13 10:52:00,
2013-03-13 07:02:00,32.0,28.0,-100.00,WSW,240,6.0,13.0,87,0.00,,,-99.99,,2013-03-13 11:02:00,
2013-03-13 07:12:00,31.0,28.0,-100.00,WSW,240,10.0,14.0,87,0.00,,,-99.99,,2013-03-13 11:12:00,
2013-03-13 07:22:00,32.0,28.0,-100.00,SW,235,12.0,21.0,85,0.00,,,-99.99,,2013-03-13 11:22:00,
2013-03-13 07:32:00,32.0,27.0,-100.00,WSW,255,12.0,16.0,83,0.00,,,-99.99,,2013-03-13 11:32:00,
2013-03-13 07:42:00,31.0,27.0,-100.00,West,270,9.0,14.0,83,0.00,,,-99.99,,2013-03-13 11:42:00,
2013-03-13 07:52:00,31.0,27.0,-100.00,West,280,9.0,14.0,83,0.00,,,-99.99,,2013-03-13 11:52:00,
2013-03-13 08:02:00,31.0,27.0,-100.00,WSW,255,7.0,13.0,84,0.00,,,-99.99,,2013-03-13 12:02:00,
2013-03-13 08:12:00,31.0,28.0,-100.00,West,275,9.0,16.0,87,0.55,,,-99.99,,2013-03-13 12:12:00,
2013-03-13 08:22:00,31.0,27.0,-100.00,West,280,11.0,18.0,84,0.55,,,-99.99,,2013-03-13 12:22:00,
2013-03-13 08:32:00,31.0,26.0,-100.00,WNW,285,11.0,19.0,83,0.00,,,-99.99,,2013-03-13 12:32:00,
2013-03-13 08:42:00,30.0,25.0,-100.00,West,270,9.0,19.0,81,0.00,,,-99.99,,2013-03-13 12:42:00,
2013-03-13 08:52:00,30.0,23.0,-100.00,West,270,14.0,22.0,76,0.00,,,-99.99,,2013-03-13 12:52:00,
2013-03-13 09:02:00,30.0,22.0,-100.00,WNW,295,11.0,22.0,72,0.00,,,-99.99,,2013-03-13 13:02:00,
2013-03-13 09:12:00,29.0,21.0,-100.00,WNW,295,7.0,23.0,69,0.00,,,-99.99,,2013-03-13 13:12:00,
2013-03-13 09:22:00,29.0,21.0,-100.00,WNW,295,10.0,18.0,69,0.00,,,-99.99,,2013-03-13 13:22:00,
2013-03-13 09:33:00,30.0,20.0,-100.00,West,270,11.0,18.0,68,0.00,,,-99.99,,2013-03-13 13:33:00,
2013-03-13 09:43:00,30.0,20.0,-100.00,WNW,285,12.0,22.0,65,0.00,,,-99.99,,2013-03-13 13:43:00,
2013-03-13 09:52:00,30.0,20.0,-100.00,West,270,9.0,16.0,66,0.00,,,-99.99,,2013-03-13 13:52:00,
2013-03-13 10:02:00,30.0,20.0,-100.00,West,270,8.0,14.0,67,0.00,,,-99.99,,2013-03-13 14:02:00,
2013-03-13 10:12:00,30.0,20.0,-100.00,West,275,16.0,24.0,65,0.00,,,-99.99,,2013-03-13 14:12:00,
2013-03-13 10:22:00,29.0,18.0,-100.00,West,280,14.0,25.0,62,0.00,,,-99.99,,2013-03-13 14:22:00,
2013-03-13 10:33:00,30.0,19.0,-100.00,WNW,285,14.0,22.0,64,0.00,,,-99.99,,2013-03-13 14:33:00,
2013-03-13 10:42:00,30.0,19.0,-100.00,WNW,290,11.0,22.0,63,0.00,,,-99.99,,2013-03-13 14:42:00,
2013-03-13 10:52:00,30.0,20.0,-100.00,West,280,11.0,19.0,66,0.00,,,-99.99,,2013-03-13 14:52:00,
2013-03-13 11:03:00,29.0,19.0,-100.00,West,275,15.0,20.0,64,0.00,,,-99.99,,2013-03-13 15:03:00,
2013-03-13 11:12:00,30.0,19.0,-100.00,West,280,14.0,25.0,63,0.00,,,-99.99,,2013-03-13 15:12:00,
2013-03-13 11:22:00,29.0,19.0,-100.00,West,280,15.0,22.0,64,0.00,,,-99.99,,2013-03-13 15:22:00,
2013-03-13 11:32:00,29.0,19.0,-100.00,West,280,13.0,22.0,66,0.00,,,-99.99,,2013-03-13 15:32:00,
2013-03-13 11:42:00,29.0,21.0,-100.00,WNW,285,12.0,19.0,70,0.00,,,-99.99,,2013-03-13 15:42:00,
2013-03-13 11:52:00,29.0,20.0,-100.00,WNW,295,12.0,19.0,68,0.00,,,-99.99,,2013-03-13 15:52:00,
2013-03-13 12:03:00,29.0,21.0,-100.00,West,270,11.0,21.0,71,0.00,,,-99.99,,2013-03-13 16:03:00,
2013-03-13 12:12:00,29.0,21.0,-100.00,WNW,295,13.0,22.0,71,0.55,,,-99.99,,2013-03-13 16:12:00,
2013-03-13 12:22:00,29.0,21.0,-100.00,WNW,295,13.0,22.0,71,0.55,,,-99.99,,2013-03-13 16:22:00,
2013-03-13 12:32:00,29.0,22.0,-100.00,West,275,11.0,19.0,74,0.00,,,-99.99,,2013-03-13 16:32:00,
2013-03-13 12:42:00,29.0,23.0,-100.00,West,275,7.0,18.0,80,0.55,,,-99.99,,2013-03-13 16:42:00,
2013-03-13 12:52:00,29.0,23.0,-100.00,West,280,11.0,18.0,78,0.00,,,-99.99,,2013-03-13 16:52:00,
2013-03-13 13:03:00,32.0,24.0,-100.00,West,275,11.0,19.0,73,0.00,,,-99.99,,2013-03-13 17:03:00,
2013-03-13 13:12:00,31.0,22.0,-100.00,WNW,295,19.0,28.0,69,0.00,,,-99.99,,2013-03-13 17:12:00,
2013-03-13 13:22:00,29.0,21.0,-100.00,West,275,10.0,27.0,73,0.00,,,-99.99,,2013-03-13 17:22:00,
2013-03-13 13:33:00,31.0,22.0,-100.00,West,275,12.0,19.0,70,0.00,,,-99.99,,2013-03-13 17:33:00,
2013-03-13 13:42:00,31.0,21.0,-100.00,WNW,285,16.0,22.0,66,0.00,,,-99.99,,2013-03-13 17:42:00,
2013-03-13 13:53:00,30.0,22.0,-100.00,West,260,15.0,21.0,71,0.00,,,-99.99,,2013-03-13 17:53:00,
2013-03-13 14:02:00,30.0,23.0,-100.00,West,270,13.0,22.0,74,0.00,,,-99.99,,2013-03-13 18:02:00,
2013-03-13 14:12:00,31.0,22.0,-100.00,West,260,18.0,25.0,70,0.00,,,-99.99,,2013-03-13 18:12:00,
2013-03-13 14:22:00,31.0,22.0,-100.00,West,280,16.0,29.0,67,0.00,,,-99.99,,2013-03-13 18:22:00,
2013-03-13 14:33:00,32.0,21.0,-100.00,WNW,295,17.0,25.0,63,0.00,,,-99.99,,2013-03-13 18:33:00,
2013-03-13 14:42:00,32.0,20.0,-100.00,WNW,285,17.0,25.0,62,0.00,,,-99.99,,2013-03-13 18:42:00,
2013-03-13 14:52:00,28.0,25.0,-100.00,NW,320,6.0,22.0,90,1.10,,,-99.99,,2013-03-13 18:52:00,
2013-03-13 15:02:00,28.0,26.0,-100.00,NNW,330,6.0,16.0,90,0.00,,,-99.99,,2013-03-13 19:02:00,
2013-03-13 15:12:00,28.0,25.0,-100.00,NW,310,8.0,19.0,87,0.00,,,-99.99,,2013-03-13 19:12:00,
2013-03-13 15:22:00,29.0,24.0,-100.00,West,275,11.0,16.0,82,0.00,,,-99.99,,2013-03-13 19:22:00,
2013-03-13 15:32:00,30.0,26.0,-100.00,WNW,300,6.0,16.0,83,0.00,,,-99.99,,2013-03-13 19:32:00,
2013-03-13 15:43:00,27.0,23.0,-100.00,West,280,14.0,21.0,84,3.39,,,-99.99,,2013-03-13 19:43:00,
2013-03-13 15:52:00,28.0,24.0,-100.00,West,280,17.0,22.0,83,1.10,,,-99.99,,2013-03-13 19:52:00,
2013-03-13 16:02:00,29.0,23.0,-100.00,West,275,12.0,21.0,75,0.00,,,-99.99,,2013-03-13 20:02:00,
2013-03-13 16:12:00,32.0,24.0,-100.00,West,270,12.0,21.0,72,0.00,,,-99.99,,2013-03-13 20:12:00,
2013-03-13 16:22:00,32.0,22.0,-100.00,West,280,14.0,22.0,68,0.00,,,-99.99,,2013-03-13 20:22:00,
2013-03-13 16:32:00,31.0,23.0,-100.00,West,265,6.0,30.0,72,0.00,,,-99.99,,2013-03-13 20:32:00,
2013-03-13 16:42:00,29.0,22.0,-100.00,West,280,14.0,21.0,74,0.00,,,-99.99,,2013-03-13 20:42:00,
2013-03-13 16:52:00,30.0,21.0,-100.00,West,275,12.0,23.0,69,0.00,,,-99.99,,2013-03-13 20:52:00,
2013-03-13 17:02:00,30.0,21.0,-100.00,WNW,290,9.0,24.0,69,0.00,,,-99.99,,2013-03-13 21:02:00,
2013-03-13 17:12:00,31.0,22.0,-100.00,WNW,290,6.0,18.0,68,0.00,,,-99.99,,2013-03-13 21:12:00,
2013-03-13 17:22:00,31.0,23.0,-100.00,WNW,300,4.0,11.0,69,0.00,,,-99.99,,2013-03-13 21:22:00,
2013-03-13 17:33:00,31.0,20.0,-100.00,West,270,9.0,16.0,64,0.00,,,-99.99,,2013-03-13 21:33:00,
2013-03-13 17:42:00,28.0,22.0,-100.00,WNW,285,7.0,17.0,77,0.55,,,-99.99,,2013-03-13 21:42:00,
2013-03-13 17:52:00,29.0,22.0,-100.00,West,270,9.0,14.0,75,0.00,,,-99.99,,2013-03-13 21:52:00,
2013-03-13 18:02:00,29.0,20.0,-100.00,West,270,15.0,21.0,68,0.00,,,-99.99,,2013-03-13 22:02:00,
2013-03-13 18:12:00,30.0,19.0,-100.00,WNW,285,16.0,23.0,64,0.00,,,-99.99,,2013-03-13 22:12:00,
2013-03-13 18:22:00,29.0,18.0,-100.00,WNW,290,14.0,25.0,61,0.00,,,-99.99,,2013-03-13 22:22:00,
2013-03-13 18:32:00,30.0,19.0,-100.00,West,275,12.0,18.0,63,0.00,,,-99.99,,2013-03-13 22:32:00,
2013-03-13 18:42:00,30.0,19.0,-100.00,WNW,300,11.0,24.0,63,0.00,,,-99.99,,2013-03-13 22:42:00,
2013-03-13 18:52:00,29.0,19.0,-100.00,West,275,11.0,16.0,65,0.00,,,-99.99,,2013-03-13 22:52:00,
2013-03-13 19:02:00,30.0,19.0,-100.00,WNW,285,15.0,25.0,64,0.00,,,-99.99,,2013-03-13 23:02:00,
2013-03-13 19:12:00,29.0,17.0,-100.00,WNW,285,14.0,24.0,60,0.00,,,-99.99,,2013-03-13 23:12:00,
2013-03-13 19:22:00,29.0,18.0,-100.00,West,265,9.0,16.0,63,0.00,,,-99.99,,2013-03-13 23:22:00,
2013-03-13 19:32:00,29.0,18.0,-100.00,West,275,12.0,23.0,63,0.00,,,-99.99,,2013-03-13 23:32:00,
2013-03-13 19:42:00,28.0,19.0,-100.00,West,270,16.0,22.0,67,0.00,,,-99.99,,2013-03-13 23:42:00,
2013-03-13 19:52:00,28.0,20.0,-100.00,WNW,290,11.0,20.0,71,0.00,,,-99.99,,2013-03-13 23:52:00,
2013-03-13 20:02:00,28.0,20.0,-100.00,West,275,15.0,22.0,72,0.00,,,-99.99,,2013-03-14 00:02:00,
2013-03-13 20:13:00,28.0,20.0,-100.00,West,270,12.0,19.0,73,0.00,,,-99.99,,2013-03-14 00:13:00,
2013-03-13 20:22:00,28.0,20.0,-100.00,West,270,14.0,20.0,70,0.00,,,-99.99,,2013-03-14 00:22:00,
2013-03-13 20:32:00,28.0,18.0,-100.00,West,280,16.0,22.0,65,0.00,,,-99.99,,2013-03-14 00:32:00,
2013-03-13 20:42:00,28.0,17.0,-100.00,WNW,295,12.0,19.0,63,0.00,,,-99.99,,2013-03-14 00:42:00,
2013-03-13 20:52:00,28.0,18.0,-100.00,WNW,285,11.0,21.0,64,0.00,,,-99.99,,2013-03-14 00:52:00,
2013-03-13 21:02:00,28.0,18.0,-100.00,West,260,13.0,25.0,65,0.00,,,-99.99,,2013-03-14 01:02:00,
2013-03-13 21:12:00,28.0,19.0,-100.00,West,275,12.0,20.0,66,0.00,,,-99.99,,2013-03-14 01:12:00,
2013-03-13 21:22:00,28.0,18.0,-100.00,WNW,300,11.0,24.0,64,0.00,,,-99.99,,2013-03-14 01:22:00,
2013-03-13 21:32:00,28.0,18.0,-100.00,West,280,9.0,17.0,66,0.00,,,-99.99,,2013-03-14 01:32:00,
2013-03-13 21:42:00,28.0,18.0,-100.00,West,280,14.0,22.0,66,0.00,,,-99.99,,2013-03-14 01:42:00,
2013-03-13 21:52:00,28.0,18.0,-100.00,WNW,285,15.0,22.0,65,0.00,,,-99.99,,2013-03-14 01:52:00,
2013-03-13 22:02:00,28.0,18.0,-100.00,West,265,11.0,21.0,65,0.00,,,-99.99,,2013-03-14 02:02:00,
2013-03-13 22:12:00,28.0,18.0,-100.00,West,280,16.0,24.0,65,0.00,,,-99.99,,2013-03-14 02:12:00,
2013-03-13 22:22:00,28.0,18.0,-100.00,West,275,13.0,23.0,65,0.00,,,-99.99,,2013-03-14 02:22:00,
2013-03-13 22:32:00,28.0,18.0,-100.00,West,275,10.0,19.0,66,0.00,,,-99.99,,2013-03-14 02:32:00,
2013-03-13 22:42:00,28.0,18.0,-100.00,West,275,10.0,19.0,66,0.00,,,-99.99,,2013-03-14 02:42:00,
2013-03-13 22:51:00,28.0,18.0,-100.00,West,275,10.0,19.0,66,0.00,,,-99.99,,2013-03-14 02:51:00,
2013-03-13 23:02:00,28.0,18.0,-100.00,WNW,290,11.0,16.0,67,0.00,,,-99.99,,2013-03-14 03:02:00,
2013-03-13 23:12:00,28.0,18.0,-100.00,West,275,11.0,16.0,67,0.00,,,-99.99,,2013-03-14 03:12:00,
2013-03-13 23:23:00,28.0,19.0,-100.00,West,270,10.0,19.0,68,0.00,,,-99.99,,2013-03-14 03:23:00,
2013-03-13 23:32:00,27.0,19.0,-100.00,WNW,295,10.0,20.0,69,0.00,,,-99.99,,2013-03-14 03:32:00,
2013-03-13 23:42:00,27.0,19.0,-100.00,WNW,295,10.0,20.0,69,0.00,,,-99.99,,2013-03-14 03:42:00,
2013-03-13 23:52:00,27.0,18.0,-100.00,WNW,290,10.0,14.0,70,0.00,,,-99.99,,2013-03-14 03:52:00,